Content
SEND FEEDBACK

Daily
Averages
Monthly
Summary
United States of America

LYNN, NORTH CAROLINA


Home > North America > United States > North Carolina
Elevation: 1090 feet     Latitude: 35 12N     Longitude: 082 14W

WEATHER
 
SELECT A DAY
Number of Records: 205,222;   Date Range: 1/1/95 - 8/12/14
 
SHARE

PRINT THIS DATA

[ ← Previous Day ]
WEATHER ALMANAC - JANUARY 31, 2013
[ Next Day → ]
[ °C ]   °F
Weather ElementAverageHighLow
Temperature42.4 °F50 °F (2:53 pm)35.1 °F (6:53 am)
Dewpoint24.4 °F39.9 °F (1:53 am)16 °F (4:53 pm)
Humidity51.3 %82 % (1:53 am)27 % (4:53 pm)
Barometer29.92 in30.06 in (9:53 pm)29.63 in (1:53 am)
Wind Speed14 mph20.7 mph (1:53 pm)
Wind Gust29.9 mph (1:53 pm)
Weather ElementAverage
Visibility10 mi
Wind DirectionWSW (247.4 °)

Weather ElementTotal
Precipitation---
Heating Degree Days22.5 (Base 65)
Averaged from 23 records on January 31, 2013
WEATHER CONDITIONS BREAKOUT
WIND DIRECTION BREAKOUT
WEATHER BY HOUR - JANUARY 31, 2013
[ °C ]   °F
Local TimeTemperatureDewpointHumidityBarometerVisibilityWind DirectionWind SpeedGust SpeedPrecipitationEventsConditions
1:53 AM45.0 °F39.9 °F82 %29.63 in10.0 miWSW (240°)16.1 mph27.6 mphClear
2:53 AM43.0 °F35.1 °F74 %29.67 in10.0 miWSW (250°)17.3 mphClear
3:53 AM41.0 °F33.1 °F73 %29.71 in10.0 miWest (260°)12.7 mph20.7 mphClear
4:53 AM37.9 °F30.0 °F73 %29.76 in10.0 miWSW (250°)11.5 mph19.6 mphClear
5:53 AM37.0 °F27.0 °F67 %29.79 in10.0 miWest (260°)13.8 mph20.7 mphClear
6:53 AM35.1 °F25.0 °F67 %29.85 in10.0 miWest (260°)11.5 mph20.7 mphClear
7:53 AM35.1 °F24.1 °F64 %29.89 in10.0 miWest (260°)12.7 mphClear
8:53 AM37.9 °F25.0 °F60 %29.91 in10.0 miWSW (250°)11.5 mphClear
9:53 AM41.0 °F25.0 °F53 %29.94 in10.0 miWSW (240°)18.4 mph23.0 mphClear
10:53 AM43.0 °F24.1 °F47 %29.95 in10.0 miWSW (250°)15.0 mph24.2 mphClear
11:53 AM45.0 °F24.1 °F44 %29.95 in10.0 miSW (230°)13.8 mph21.9 mphClear
12:53 PM46.9 °F21.9 °F37 %29.94 in10.0 miWSW (250°)17.3 mph26.5 mphClear
1:53 PM48.9 °F21.9 °F35 %29.94 in10.0 miSW (230°)20.7 mph29.9 mphClear
2:53 PM50.0 °F21.9 °F33 %29.95 in10.0 miWSW (240°)17.3 mph25.3 mphClear
3:53 PM50.0 °F19.0 °F29 %29.97 in10.0 miWest (280°)17.3 mph24.2 mphClear
4:53 PM48.9 °F16.0 °F27 %29.98 in10.0 miWest (280°)15.0 mph26.5 mphClear
5:53 PM45.0 °F18.0 °F34 %29.99 in10.0 miWest (260°)11.5 mph23.0 mphClear
6:53 PM42.8 °F19.4 °F39 %30.00 in10.0 miSW (230°)12.7 mphClear
7:53 PM41.0 °F21.9 °F47 %30.04 in10.0 miWSW (240°)13.8 mphClear
8:53 PM39.9 °F21.0 °F47 %30.04 in10.0 miSW (230°)9.2 mphClear
9:53 PM39.9 °F21.9 °F49 %30.06 in10.0 miWSW (240°)8.1 mphClear
10:53 PM39.9 °F21.9 °F49 %30.05 in10.0 miSW (220°)9.2 mphClear
11:53 PM41.0 °F23.0 °F49 %30.04 in10.0 miWSW (240°)16.1 mph25.3 mphClear
Hourly data recorded from KGSP, located miles away from Lynn, North Carolina







STORIES FROM OUR PARTNERS